DLH1558 EDDF-LUKK

Flight info

Callsign DLH1558
Flight time 1h 52m
Altitude 31000
Route SULUS4D/07C SULUS Z650 VEMUT/N0434F350 DCT SLC DCT RIGSA DCT KUSIS DCT UNIRA
Aircraft A319/M-SDE2E3FGILORWXYZ/H

Departure

Time 2026-05-08 08:32
Airport Frankfurt Main Airport (EDDF)

Arrival

Time 2026-05-08 10:24
Airport Chişinău International Airport (LUKK)
Time Latitude Longitude Altitude Speed Heading
2026-05-08 08:04 50.04036 8.55549 351 ft 0 kts 160°
2026-05-08 08:25 50.04035 8.55549 355 ft 1 kts 160°
2026-05-08 08:26 50.04023 8.55556 358 ft 3 kts 159°
2026-05-08 08:26 50.03994 8.55574 357 ft 7 kts 159°
2026-05-08 08:26 50.03948 8.55547 355 ft 9 kts 252°
2026-05-08 08:26 50.03926 8.55438 349 ft 12 kts 248°
2026-05-08 08:27 50.03894 8.55306 356 ft 13 kts 249°
2026-05-08 08:27 50.03860 8.55168 353 ft 15 kts 248°
2026-05-08 08:27 50.03823 8.55011 353 ft 16 kts 251°
2026-05-08 08:27 50.03788 8.54860 351 ft 14 kts 249°
2026-05-08 08:28 50.03752 8.54709 346 ft 15 kts 249°
2026-05-08 08:28 50.03711 8.54540 346 ft 18 kts 250°
2026-05-08 08:28 50.03673 8.54380 348 ft 14 kts 249°
2026-05-08 08:28 50.03626 8.54307 341 ft 10 kts 181°
2026-05-08 08:29 50.03577 8.54329 337 ft 0 kts 159°
2026-05-08 08:30 50.03535 8.54353 344 ft 5 kts 159°
2026-05-08 08:31 50.03503 8.54372 346 ft 6 kts 159°
2026-05-08 08:31 50.03497 8.54448 351 ft 14 kts 68°
2026-05-08 08:31 50.03608 8.54906 353 ft 82 kts 70°
2026-05-08 08:31 50.03881 8.56046 360 ft 141 kts 70°
2026-05-08 08:32 50.04264 8.57649 690 ft 159 kts 70°
2026-05-08 08:32 50.04644 8.59240 1439 ft 156 kts 70°
2026-05-08 08:32 50.05028 8.60915 1890 ft 175 kts 72°
2026-05-08 08:32 50.05439 8.62805 2299 ft 194 kts 71°
2026-05-08 08:33 50.05909 8.64919 2681 ft 217 kts 71°
2026-05-08 08:33 50.06410 8.67173 3463 ft 224 kts 71°
2026-05-08 08:33 50.06879 8.69292 4213 ft 228 kts 71°
2026-05-08 08:33 50.07167 8.71754 4907 ft 241 kts 91°
2026-05-08 08:34 50.06917 8.74458 5353 ft 263 kts 101°
2026-05-08 08:34 50.06578 8.77303 6142 ft 271 kts 101°
2026-05-08 08:34 50.06236 8.80221 6977 ft 276 kts 101°
2026-05-08 08:34 50.05892 8.83192 7792 ft 282 kts 100°
2026-05-08 08:35 50.05780 8.86256 8626 ft 287 kts 88°
2026-05-08 08:35 50.05840 8.89383 9495 ft 291 kts 89°
2026-05-08 08:35 50.05899 8.92561 10303 ft 296 kts 89°
2026-05-08 08:35 50.05957 8.95879 10631 ft 318 kts 89°
2026-05-08 08:36 50.06014 8.99425 11051 ft 334 kts 89°
2026-05-08 08:36 50.06073 9.03066 11748 ft 340 kts 89°
2026-05-08 08:36 50.06133 9.06761 12504 ft 344 kts 89°
2026-05-08 08:36 50.06188 9.10505 13267 ft 347 kts 89°
2026-05-08 08:37 50.06243 9.14279 14002 ft 351 kts 89°
2026-05-08 08:37 50.06300 9.18100 14642 ft 355 kts 89°
2026-05-08 08:37 50.06358 9.21968 15278 ft 359 kts 89°
2026-05-08 08:37 50.06413 9.25863 15906 ft 363 kts 89°
2026-05-08 08:38 50.06469 9.29829 16527 ft 368 kts 89°
2026-05-08 08:38 50.06525 9.33830 17150 ft 372 kts 89°
2026-05-08 08:38 50.06576 9.37869 17767 ft 376 kts 89°
2026-05-08 08:38 50.06625 9.41954 18366 ft 380 kts 89°
2026-05-08 08:39 50.06674 9.46103 18916 ft 384 kts 89°
2026-05-08 08:39 50.06723 9.50276 19469 ft 387 kts 89°
2026-05-08 08:39 50.06768 9.54481 20024 ft 391 kts 89°
2026-05-08 08:39 50.06811 9.58727 20579 ft 394 kts 89°
2026-05-08 08:40 50.06841 9.61555 20946 ft 396 kts 89°
2026-05-08 08:40 50.06884 9.65867 21490 ft 399 kts 89°
2026-05-08 08:40 50.06925 9.70209 22034 ft 403 kts 89°
2026-05-08 08:40 50.06968 9.74583 22543 ft 407 kts 89°
2026-05-08 08:41 50.07013 9.79072 22692 ft 421 kts 89°
2026-05-08 08:41 50.07057 9.83661 23029 ft 427 kts 89°
2026-05-08 08:41 50.07098 9.88310 23469 ft 431 kts 89°
2026-05-08 08:41 50.07137 9.92993 23897 ft 435 kts 89°
2026-05-08 08:42 50.07172 9.97715 24284 ft 437 kts 89°
2026-05-08 08:42 50.07205 10.02462 24674 ft 440 kts 89°
2026-05-08 08:42 50.07238 10.07232 25064 ft 442 kts 89°
2026-05-08 08:42 50.07269 10.12033 25443 ft 445 kts 90°
2026-05-08 08:43 50.07296 10.16859 25818 ft 447 kts 90°
2026-05-08 08:43 50.07323 10.21715 26198 ft 450 kts 90°
2026-05-08 08:43 50.07350 10.26595 26577 ft 452 kts 90°
2026-05-08 08:43 50.07374 10.31505 27017 ft 452 kts 90°
2026-05-08 08:44 50.07395 10.36343 27819 ft 445 kts 90°
2026-05-08 08:44 50.07417 10.41152 28280 ft 446 kts 90°
2026-05-08 08:44 50.07441 10.46030 28414 ft 455 kts 90°
2026-05-08 08:44 50.07463 10.50993 28551 ft 462 kts 90°
2026-05-08 08:45 50.07483 10.56023 28780 ft 467 kts 90°
2026-05-08 08:45 50.07497 10.61098 29089 ft 470 kts 90°
2026-05-08 08:45 50.07506 10.66189 29395 ft 472 kts 90°
2026-05-08 08:45 50.07358 10.71307 29689 ft 474 kts 97°
2026-05-08 08:46 50.06748 10.76352 29986 ft 475 kts 106°
2026-05-08 08:46 50.05751 10.81251 30269 ft 477 kts 110°
2026-05-08 08:46 50.04711 10.86151 30623 ft 476 kts 109°
2026-05-08 08:46 50.03681 10.91041 30972 ft 476 kts 109°
2026-05-08 08:47 50.02651 10.95933 31306 ft 476 kts 109°
2026-05-08 08:47 50.01622 11.00822 31641 ft 476 kts 109°
2026-05-08 08:47 50.00587 11.05710 31978 ft 476 kts 110°
2026-05-08 08:47 49.99547 11.10587 32324 ft 476 kts 110°
2026-05-08 08:48 49.98497 11.15477 32660 ft 476 kts 110°
2026-05-08 08:48 49.97444 11.20347 32998 ft 476 kts 110°
2026-05-08 08:48 49.96391 11.25234 33335 ft 477 kts 110°
2026-05-08 08:48 49.95352 11.30114 33669 ft 477 kts 110°
2026-05-08 08:49 49.94317 11.35014 34005 ft 477 kts 110°
2026-05-08 08:49 49.93284 11.39899 34312 ft 477 kts 110°
2026-05-08 08:49 49.92278 11.44809 34598 ft 477 kts 108°
2026-05-08 08:49 49.91343 11.49747 34886 ft 477 kts 107°
2026-05-08 08:50 49.90451 11.54712 35081 ft 478 kts 107°
2026-05-08 08:50 49.89577 11.59688 35126 ft 478 kts 107°
2026-05-08 08:50 49.87997 11.69686 35125 ft 479 kts 99°
2026-05-08 08:51 49.87104 11.79928 35123 ft 479 kts 99°
2026-05-08 08:51 49.86187 11.90152 35124 ft 479 kts 99°
2026-05-08 08:52 49.85250 12.00389 35123 ft 480 kts 99°
2026-05-08 08:52 49.84330 12.10623 35123 ft 480 kts 99°
2026-05-08 08:53 49.83410 12.20841 35116 ft 479 kts 99°
2026-05-08 08:53 49.82471 12.31070 35112 ft 480 kts 99°
2026-05-08 08:54 49.81525 12.41294 35109 ft 480 kts 99°
2026-05-08 08:54 49.80188 12.51377 35103 ft 478 kts 107°
2026-05-08 08:55 49.78475 12.61328 35100 ft 478 kts 107°
2026-05-08 08:55 49.76777 12.71205 35099 ft 478 kts 107°
2026-05-08 08:56 49.75058 12.81132 35100 ft 478 kts 107°
2026-05-08 08:56 49.73319 12.91064 35110 ft 479 kts 107°
2026-05-08 08:57 49.71579 13.00998 35113 ft 479 kts 107°
2026-05-08 08:57 49.69826 13.10937 35116 ft 480 kts 107°
2026-05-08 08:58 49.68066 13.20865 35124 ft 480 kts 107°
2026-05-08 08:58 49.66297 13.30809 35125 ft 480 kts 107°
2026-05-08 08:59 49.64527 13.40742 35126 ft 480 kts 107°
2026-05-08 08:59 49.62737 13.50678 35122 ft 480 kts 107°
2026-05-08 09:00 49.60988 13.60319 35113 ft 481 kts 107°
2026-05-08 09:00 49.59182 13.70244 35112 ft 481 kts 107°
2026-05-08 09:01 49.57372 13.80159 35101 ft 481 kts 107°
2026-05-08 09:01 49.55548 13.90075 35100 ft 481 kts 108°
2026-05-08 09:02 49.53716 13.99989 35096 ft 481 kts 108°
2026-05-08 09:02 49.51873 14.09900 35101 ft 482 kts 108°
2026-05-08 09:03 49.50013 14.19809 35114 ft 482 kts 108°
2026-05-08 09:03 49.48148 14.29723 35109 ft 483 kts 108°
2026-05-08 09:04 49.46291 14.39581 35107 ft 483 kts 108°
2026-05-08 09:04 49.44405 14.49493 35105 ft 484 kts 108°
2026-05-08 09:05 49.42510 14.59412 35107 ft 484 kts 108°
2026-05-08 09:05 49.40610 14.69328 35108 ft 484 kts 108°
2026-05-08 09:06 49.38696 14.79230 35107 ft 484 kts 108°
2026-05-08 09:06 49.36776 14.89147 35108 ft 485 kts 108°
2026-05-08 09:07 49.34849 14.99054 35105 ft 485 kts 109°
2026-05-08 09:07 49.32905 15.08944 35103 ft 485 kts 109°
2026-05-08 09:08 49.30955 15.18833 35108 ft 485 kts 109°
2026-05-08 09:08 49.28993 15.28735 35107 ft 485 kts 109°
2026-05-08 09:09 49.27025 15.38626 35103 ft 485 kts 109°
2026-05-08 09:09 49.25051 15.48506 35098 ft 486 kts 109°
2026-05-08 09:10 49.23063 15.58392 35095 ft 486 kts 109°
2026-05-08 09:10 49.21065 15.68258 35096 ft 486 kts 109°
2026-05-08 09:11 49.19055 15.78129 35097 ft 487 kts 109°
2026-05-08 09:11 49.17040 15.88020 35096 ft 487 kts 109°
2026-05-08 09:12 49.15015 15.97898 35097 ft 487 kts 109°
2026-05-08 09:12 49.12983 16.07769 35098 ft 488 kts 110°
2026-05-08 09:13 49.10931 16.17660 35097 ft 488 kts 110°
2026-05-08 09:13 49.08875 16.27531 35096 ft 489 kts 110°
2026-05-08 09:14 49.06805 16.37416 35096 ft 489 kts 110°
2026-05-08 09:14 49.04726 16.47292 35096 ft 489 kts 110°
2026-05-08 09:15 49.02648 16.57177 35094 ft 490 kts 110°
2026-05-08 09:15 49.00554 16.67050 35095 ft 490 kts 110°
2026-05-08 09:16 48.98447 16.76915 35093 ft 490 kts 110°
2026-05-08 09:16 48.96329 16.86775 35093 ft 490 kts 110°
2026-05-08 09:17 48.94206 16.96629 35090 ft 490 kts 110°
2026-05-08 09:17 48.92071 17.06482 35077 ft 490 kts 111°
2026-05-08 09:18 48.89924 17.16324 35072 ft 491 kts 111°
2026-05-08 09:18 48.87771 17.26171 35073 ft 491 kts 111°
2026-05-08 09:19 48.85609 17.36008 35071 ft 491 kts 111°
2026-05-08 09:19 48.83444 17.45851 35067 ft 492 kts 111°
2026-05-08 09:20 48.81272 17.55696 35064 ft 492 kts 111°
2026-05-08 09:20 48.79081 17.65529 35064 ft 492 kts 111°
2026-05-08 09:21 48.76880 17.75365 35063 ft 493 kts 111°
2026-05-08 09:23 48.69097 18.09750 35064 ft 493 kts 112°
2026-05-08 09:23 48.66855 18.19561 35059 ft 493 kts 112°
2026-05-08 09:24 48.64606 18.29359 35052 ft 493 kts 112°
2026-05-08 09:24 48.62732 18.37500 35048 ft 493 kts 112°
2026-05-08 09:25 48.60472 18.47291 35050 ft 493 kts 112°
2026-05-08 09:25 48.58199 18.57067 35048 ft 493 kts 112°
2026-05-08 09:26 48.55911 18.66830 35052 ft 493 kts 112°
2026-05-08 09:26 48.53624 18.76585 35049 ft 493 kts 112°
2026-05-08 09:27 48.51322 18.86336 35050 ft 493 kts 112°
2026-05-08 09:27 48.49015 18.96072 35052 ft 493 kts 112°
2026-05-08 09:28 48.46698 19.05807 35046 ft 493 kts 112°
2026-05-08 09:28 48.44635 19.15679 35051 ft 496 kts 106°
2026-05-08 09:29 48.42944 19.25749 35052 ft 496 kts 107°
2026-05-08 09:29 48.41232 19.35761 35062 ft 493 kts 107°
2026-05-08 09:30 48.39508 19.45776 35065 ft 495 kts 107°
2026-05-08 09:30 48.37779 19.55805 35066 ft 495 kts 107°
2026-05-08 09:31 48.36051 19.65822 35067 ft 495 kts 107°
2026-05-08 09:31 48.34309 19.75824 35066 ft 494 kts 107°
2026-05-08 09:32 48.32548 19.85805 35071 ft 494 kts 108°
2026-05-08 09:32 48.30782 19.95775 35069 ft 494 kts 107°
2026-05-08 09:33 48.29017 20.05744 35072 ft 494 kts 108°
2026-05-08 09:33 48.27239 20.15761 35075 ft 493 kts 108°
2026-05-08 09:34 48.25474 20.25636 35074 ft 493 kts 108°
2026-05-08 09:34 48.23683 20.35562 35069 ft 493 kts 108°
2026-05-08 09:35 48.21885 20.45476 35066 ft 492 kts 108°
2026-05-08 09:35 48.20080 20.55380 35066 ft 492 kts 108°
2026-05-08 09:36 48.18270 20.65258 35065 ft 491 kts 108°
2026-05-08 09:36 48.16452 20.75127 35067 ft 491 kts 108°
2026-05-08 09:37 48.14696 20.85002 35062 ft 491 kts 107°
2026-05-08 09:37 48.13022 20.94904 35066 ft 491 kts 107°
2026-05-08 09:38 48.11332 21.04796 35068 ft 490 kts 107°
2026-05-08 09:38 48.09613 21.14645 35067 ft 489 kts 107°
2026-05-08 09:39 48.07877 21.24481 35076 ft 489 kts 108°
2026-05-08 09:39 48.06143 21.34304 35080 ft 488 kts 108°
2026-05-08 09:40 48.04401 21.44115 35086 ft 488 kts 108°
2026-05-08 09:40 48.02650 21.53897 35091 ft 487 kts 108°
2026-05-08 09:41 48.00935 21.63463 35094 ft 487 kts 108°
2026-05-08 09:41 47.99175 21.73228 35093 ft 487 kts 108°
2026-05-08 09:42 47.97405 21.82969 35088 ft 486 kts 108°
2026-05-08 09:42 47.95640 21.92633 35081 ft 486 kts 108°
2026-05-08 09:43 47.93857 22.02348 35076 ft 486 kts 108°
2026-05-08 09:43 47.92072 22.12070 35069 ft 486 kts 108°
2026-05-08 09:44 47.90275 22.21771 35066 ft 486 kts 109°
2026-05-08 09:44 47.88458 22.31468 35061 ft 486 kts 109°
2026-05-08 09:45 47.86857 22.41264 35061 ft 489 kts 101°
2026-05-08 09:45 47.85827 22.51272 35072 ft 489 kts 102°
2026-05-08 09:46 47.84778 22.61285 35075 ft 489 kts 102°
2026-05-08 09:46 47.83711 22.71293 35077 ft 489 kts 102°
2026-05-08 09:47 47.82645 22.81293 35082 ft 489 kts 102°
2026-05-08 09:47 47.81572 22.91292 35083 ft 489 kts 102°
2026-05-08 09:48 47.80485 23.01288 35079 ft 489 kts 102°
2026-05-08 09:48 47.79390 23.11275 35082 ft 489 kts 102°
2026-05-08 09:49 47.78286 23.21254 35081 ft 489 kts 102°
2026-05-08 09:49 47.77181 23.31246 35082 ft 489 kts 102°
2026-05-08 09:50 47.76062 23.41205 35082 ft 489 kts 103°
2026-05-08 09:50 47.74930 23.51188 35083 ft 489 kts 103°
2026-05-08 09:51 47.73791 23.61156 35079 ft 489 kts 103°
2026-05-08 09:51 47.72644 23.71127 35084 ft 489 kts 103°
2026-05-08 09:52 47.71491 23.81085 35081 ft 489 kts 103°
2026-05-08 09:52 47.70329 23.91028 35083 ft 488 kts 103°
2026-05-08 09:53 47.69160 24.00958 35079 ft 488 kts 103°
2026-05-08 09:53 47.67986 24.10866 35084 ft 488 kts 103°
2026-05-08 09:54 47.66801 24.20770 35083 ft 487 kts 103°
2026-05-08 09:54 47.65599 24.30670 35086 ft 487 kts 103°
2026-05-08 09:55 47.64394 24.40561 35083 ft 487 kts 103°
2026-05-08 09:55 47.63188 24.50445 35083 ft 487 kts 103°
2026-05-08 09:56 47.61984 24.60298 35080 ft 487 kts 103°
2026-05-08 09:56 47.60757 24.70177 35074 ft 487 kts 103°
2026-05-08 09:57 47.58892 24.84910 35058 ft 487 kts 103°
2026-05-08 09:57 47.57650 24.94778 35057 ft 488 kts 103°
2026-05-08 09:58 47.56399 25.04656 35055 ft 488 kts 103°
2026-05-08 09:58 47.55132 25.14536 35053 ft 488 kts 103°
2026-05-08 09:59 47.53941 25.23755 35062 ft 488 kts 103°
2026-05-08 09:59 47.52654 25.33626 35062 ft 488 kts 103°
2026-05-08 10:00 47.51372 25.43467 35054 ft 487 kts 103°
2026-05-08 10:00 47.50087 25.53305 35056 ft 487 kts 103°
2026-05-08 10:01 47.48777 25.63127 35052 ft 486 kts 104°
2026-05-08 10:01 47.47457 25.72921 35052 ft 485 kts 103°
2026-05-08 10:02 47.46143 25.82698 35055 ft 484 kts 103°
2026-05-08 10:02 47.44821 25.92440 35048 ft 483 kts 103°
2026-05-08 10:03 47.43488 26.02174 35045 ft 483 kts 103°
2026-05-08 10:03 47.42154 26.11876 35048 ft 482 kts 104°
2026-05-08 10:04 47.40810 26.21566 35043 ft 482 kts 104°
2026-05-08 10:04 47.39466 26.31259 35043 ft 482 kts 104°
2026-05-08 10:05 47.38113 26.40914 35040 ft 481 kts 104°
2026-05-08 10:05 47.37427 26.45764 34824 ft 481 kts 104°
2026-05-08 10:05 47.36741 26.50602 34038 ft 485 kts 104°
2026-05-08 10:06 47.36043 26.55502 32894 ft 492 kts 104°
2026-05-08 10:06 47.35336 26.60461 31794 ft 497 kts 104°
2026-05-08 10:06 47.34618 26.65478 30799 ft 502 kts 104°
2026-05-08 10:06 47.33901 26.70494 29985 ft 497 kts 104°
2026-05-08 10:07 47.33432 26.73782 29426 ft 495 kts 104°
2026-05-08 10:07 47.32727 26.78723 28620 ft 491 kts 104°
2026-05-08 10:07 47.32023 26.83620 27842 ft 486 kts 104°
2026-05-08 10:07 47.31320 26.88476 27092 ft 482 kts 104°
2026-05-08 10:08 47.30622 26.93268 26355 ft 476 kts 104°
2026-05-08 10:08 47.29950 26.97877 25653 ft 471 kts 104°
2026-05-08 10:08 47.29261 27.02571 24948 ft 466 kts 105°
2026-05-08 10:08 47.28577 27.07216 24269 ft 462 kts 105°
2026-05-08 10:09 47.27901 27.11809 23600 ft 457 kts 105°
2026-05-08 10:09 47.27229 27.16369 22814 ft 453 kts 105°
2026-05-08 10:09 47.26561 27.20887 22067 ft 450 kts 105°
2026-05-08 10:09 47.25896 27.25366 21346 ft 446 kts 105°
2026-05-08 10:10 47.25232 27.29806 20680 ft 442 kts 105°
2026-05-08 10:10 47.24578 27.34179 20190 ft 434 kts 105°
2026-05-08 10:10 47.23933 27.38482 19700 ft 427 kts 105°
2026-05-08 10:10 47.23300 27.42717 19231 ft 422 kts 105°
2026-05-08 10:11 47.22671 27.46911 18752 ft 417 kts 105°
2026-05-08 10:11 47.22047 27.51054 18278 ft 413 kts 105°
2026-05-08 10:11 47.21422 27.55175 17614 ft 412 kts 105°
2026-05-08 10:11 47.20809 27.59215 17167 ft 398 kts 105°
2026-05-08 10:12 47.20209 27.63155 16781 ft 393 kts 105°
2026-05-08 10:12 47.19612 27.67058 16397 ft 390 kts 105°
2026-05-08 10:12 47.19017 27.70936 16021 ft 387 kts 105°
2026-05-08 10:12 47.18427 27.74785 15591 ft 385 kts 105°
2026-05-08 10:13 47.17839 27.78603 15125 ft 382 kts 105°
2026-05-08 10:13 47.17253 27.82408 14628 ft 380 kts 105°
2026-05-08 10:13 47.16668 27.86194 14035 ft 380 kts 106°
2026-05-08 10:13 47.15888 27.89888 13399 ft 378 kts 113°
2026-05-08 10:14 47.14874 27.93445 12703 ft 377 kts 117°
2026-05-08 10:14 47.13742 27.96868 12033 ft 367 kts 119°
2026-05-08 10:14 47.12605 28.00136 11512 ft 352 kts 120°
2026-05-08 10:14 47.11515 28.03284 10996 ft 340 kts 120°
2026-05-08 10:15 47.10483 28.06346 10488 ft 329 kts 119°
2026-05-08 10:15 47.09510 28.09318 10042 ft 320 kts 118°
2026-05-08 10:15 47.08579 28.12224 9727 ft 305 kts 118°
2026-05-08 10:15 47.07705 28.14984 9454 ft 295 kts 118°
2026-05-08 10:16 47.06850 28.17679 9191 ft 289 kts 118°
2026-05-08 10:16 47.06007 28.20335 8941 ft 287 kts 118°
2026-05-08 10:16 47.05162 28.22983 8673 ft 285 kts 118°
2026-05-08 10:16 47.04319 28.25619 8416 ft 284 kts 118°
2026-05-08 10:17 47.03484 28.28237 8163 ft 283 kts 118°
2026-05-08 10:17 47.02650 28.30847 7915 ft 282 kts 118°
2026-05-08 10:17 47.01820 28.33446 7589 ft 281 kts 118°
2026-05-08 10:17 47.00988 28.36040 7184 ft 282 kts 118°
2026-05-08 10:18 47.00149 28.38644 6683 ft 284 kts 118°
2026-05-08 10:18 46.99308 28.41257 6158 ft 282 kts 118°
2026-05-08 10:18 46.98486 28.43823 5907 ft 276 kts 118°
2026-05-08 10:18 46.97673 28.46357 5700 ft 273 kts 118°
2026-05-08 10:19 46.96875 28.48829 5502 ft 265 kts 119°
2026-05-08 10:19 46.96100 28.51234 5298 ft 258 kts 119°
2026-05-08 10:19 46.95345 28.53577 5095 ft 251 kts 119°
2026-05-08 10:20 46.93862 28.58002 4696 ft 235 kts 124°
2026-05-08 10:20 46.93025 28.60011 4484 ft 229 kts 126°
2026-05-08 10:20 46.92292 28.62082 4193 ft 233 kts 110°
2026-05-08 10:20 46.92139 28.64469 3899 ft 238 kts 91°
2026-05-08 10:21 46.92201 28.66896 3578 ft 238 kts 91°
2026-05-08 10:21 46.92263 28.69292 3272 ft 233 kts 91°
2026-05-08 10:21 46.92317 28.71633 2962 ft 227 kts 91°
2026-05-08 10:21 46.92368 28.73921 2665 ft 223 kts 91°
2026-05-08 10:22 46.92417 28.76150 2384 ft 217 kts 92°
2026-05-08 10:22 46.92466 28.78332 2090 ft 212 kts 92°
2026-05-08 10:22 46.92513 28.80432 1845 ft 198 kts 93°
2026-05-08 10:22 46.92555 28.82347 1545 ft 185 kts 92°
2026-05-08 10:23 46.92595 28.84180 1324 ft 168 kts 93°
2026-05-08 10:23 46.92630 28.85776 1094 ft 149 kts 91°
2026-05-08 10:23 46.92660 28.87221 908 ft 136 kts 94°
2026-05-08 10:23 46.92682 28.88552 705 ft 129 kts 91°
2026-05-08 10:24 46.92710 28.89891 567 ft 132 kts 92°
2026-05-08 10:24 46.92739 28.91226 417 ft 129 kts 91°
2026-05-08 10:24 46.92767 28.92343 408 ft 87 kts 89°
2026-05-08 10:24 46.92778 28.93037 409 ft 44 kts 88°
2026-05-08 10:25 46.92792 28.93318 408 ft 15 kts 85°
2026-05-08 10:25 46.92828 28.93416 409 ft 9 kts 16°
2026-05-08 10:25 46.92896 28.93416 404 ft 11 kts 360°
2026-05-08 10:25 46.92979 28.93414 407 ft 14 kts
2026-05-08 10:26 46.93074 28.93428 409 ft 12 kts
2026-05-08 10:26 46.93146 28.93463 411 ft 10 kts 58°
2026-05-08 10:26 46.93142 28.93573 410 ft 12 kts 92°
2026-05-08 10:26 46.93201 28.93633 409 ft 12 kts
2026-05-08 10:27 46.93250 28.93641 408 ft 5 kts
2026-05-08 10:27 46.93271 28.93631 405 ft 2 kts 312°
2026-05-08 10:27 46.93270 28.93600 408 ft 5 kts 265°
2026-05-08 10:27 46.93275 28.93545 408 ft 2 kts 277°
2026-05-08 10:28 46.93275 28.93543 408 ft 0 kts 276°
2026-05-08 10:35 46.93275 28.93542 408 ft 0 kts 276°